Location: Chevoux
(46.3801°N, 4.9476°E)
Time: 02:13:06
(UTC+00:00)

ISS - Pass Details

Date: 06 December 2021
Orbit: 413 x 422 km, 51.6° (Epoch: 22 January)

Event Time Altitude Azimuth Distance (km) Brightness Sun altitude
Rises 16:51:39 0° 296° (WNW) 2,386 0.7 -9.7°
Reaches altitude 10° 16:53:46 10° 296° (WNW) 1,517 -0.3 -10.0°
Maximum altitude 16:57:11 86° 209° (SSW) 429 -3.7 -10.5°
Drops below altitude 10° 17:00:34 10° 120° (ESE) 1,503 -1.3 -11.1°
Enters shadow 17:01:10 - 120° (ESE) 1,754 -1.0 -11.2°
